カタログに戻る

ATLAS 2 CENTAUR R/B

運用中GTO
NORAD 21804·ROCKET BODY·🇺🇸 United States

打ち上げ Dec 7, 1991 から Cape Canaveral Space Force Station

Loading…

TLE

古いSource: Space-Track

元期: Sep 14, 2026, 01:02 UTC

1 21804U 91083B   26257.04314546 -.00000071  00000-0  50567-2 0  9999
2 21804  17.1726 256.4584 7345325 322.1676   3.9588  1.91162481242926

AllMySatでATLAS 2 CENTAUR R/Bをリアルタイム追跡

Download on the App Store